STARLINK-33945 (64154 NORAD) Tracking and Keplerian Element Data

This shows tracking and keplerian element data for the satellite.

Feedback or suggestion? Click here.




ElementValue
Catalog64154
NameSTARLINK-33945
Epoch Orbit3183
Epoch Day354.11007126
Epoch Year2025
RAAN50.7741
Inclination97.6053
Eccentricity0.0001282
Argument of Perigee78.4693
Mean Anonmoly281.6696
Mean Motion15.39367943
Decay Rate0.00028942
L11 64154U 25112J 25354.11007126 .00028942 00000+0 74089-3 0 9993
L22 64154 97.6053 50.7741 0001282 78.4693 281.6696 15.39367943 31839



Live tracking and technical data element details for STARLINK-33945 (NORAD 64154). STARLINK-33945 can be tracked NOW for your location showing map with azimuth and elevation plus other details from your city location.







IsCatalogInMostPopularTable: catalog: 64154, numindb: 4
Update: records affected: 1



GetName: 64154 STARLINK-33945

Hit Count: updated at: Sat, 07 Feb 2026 08:04:53 GMT